Regional Weather Roundup
Issued by NWS Goodland, KS

Home | Current Version | Previous Version | Graphics & Text | Print | Product List | Glossary On
Versions: 1 2 3 4 5 6 7 8 9 10 11 12 13 14 15 16 17 18 19 20 21 22 23 24 25 26 27 28 29 30 31 32 33 34 35 36 37 38 39 40 41 42 43 44 45 46 47 48 49 50
000
ASUS43 KGLD 202359
RWRGLD

GOODLAND FORECAST AREA HOURLY WEATHER ROUNDUP
NATIONAL WEATHER SERVICE GOODLAND KS
500 PM MST TUE FEB 20 2018

...OFFICIAL OBSERVATIONS...

CITY           SKY/WX    TMP DP  RH WIND       PRES   REMARKS
GOODLAND KS    FAIR      14   1  56 N10       30.16R WCI   1
HILL CITY KS   FAIR      22   2  42 N16       30.26R WCI   8
IMPERIAL NEB   FAIR      12   0  58 N7        30.20R
MCCOOK NEB     FAIR      16   4  59 N10       30.26R WCI   4
AKRON CO       FAIR      10   0  63 N6        30.08R
BURLINGTON CO  FAIR      14   2  58 NE7       30.13R
LIMON CO       FAIR      14   7  73 E8        30.04R
$$

...UNOFFICIAL OBSERVATIONS...

CITY           SKY/WX    TMP DP  RH WIND       PRES   REMARKS
LENORA KS        N/A     13  32 100 CALM        N/A
NORTON KS      CLEAR     18  -2  41 N13       30.25  WCI   4
SHARON SPRINGS   N/A     19   3  49 NE8G16      N/A
TRENTON NEB      N/A     13  32 100 CALM        N/A
KIT CARSON CO    N/A     15   4  61 MISG        N/A
$$




USA.gov is the U.S. government's official web portal to all federal, state and local government web resources and services.